Theta_e
315 314 313 311 313 313 308 305 301 297 294 292 291 293 295 296 294 297 297 298 303 304 304 303 303 302 301 300 300 300 301 301 300 301 301 301 301 302
315 314 313 312 313 314 311 309 309 304 294 293 292 293 294 295 294 296 296 296 299 301 301 301 300 300 298 297 297 298 298 298 298 299 299 300 300 300
315 314 313 312 313 313 314 311 306 304 293 290 291 292 292 292 293 294 295 295 295 298 299 299 298 297 296 295 294 294 294 295 296 296 297 298 298 299
313 313 312 312 312 313 312 308 304 302 295 289 289 289 291 292 292 290 292 294 293 297 298 297 296 295 294 293 292 292 291 292 292 293 294 294 295 296
313 313 311 312 310 310 307 303 300 298 296 291 288 289 289 290 289 289 288 288 292 294 297 296 295 295 294 293 292 291 291 291 291 291 291 292 292 293
309 310 310 310 308 306 303 301 299 296 293 290 288 287 287 288 288 286 284 282 284 290 293 294 294 294 294 293 292 292 291 291 291 290 290 290 290 291
298 299 301 297 296 301 303 300 298 295 292 289 286 287 285 285 285 286 285 285 285 286 287 289 291 292 292 293 290 291 292 292 291 291 290 290 290 289
296 296 297 295 294 294 295 295 297 296 293 291 289 287 284 283 286 286 285 285 284 284 285 287 288 289 289 292 293 293 293 293 292 291 291 290 289 289
294 294 292 292 293 294 293 293 290 293 295 295 292 291 288 287 287 285 285 285 285 285 286 285 286 287 288 291 294 294 294 294 292 292 291 290 289 289
291 291 291 291 291 292 292 290 288 287 288 289 292 290 291 290 289 288 287 285 283 283 285 283 278 287 288 288 292 294 295 295 294 292 291 291 290 289
287 288 288 287 289 291 289 288 286 285 287 289 291 290 292 292 290 287 285 285 284 284 283 284 279 281 285 284 289 294 295 295 295 294 292 291 290 290
286 286 287 287 289 289 285 283 281 281 280 279 282 284 286 287 291 288 286 285 285 284 282 281 282 282 278 281 285 287 289 294 294 294 294 292 291 289
284 284 284 289 288 289 286 283 282 281 281 278 277 278 280 281 279 281 283 284 285 285 283 280 283 282 281 280 280 281 284 286 286 290 293 293 293 291
283 283 284 288 288 288 284 286 286 282 280 279 277 275 273 277 281 281 281 278 279 281 281 282 283 282 282 280 279 280 282 284 286 286 286 290 291 291
284 287 287 287 286 284 285 285 279 278 276 276 275 274 274 273 272 274 280 274 273 274 276 276 283 282 283 282 280 280 282 279 282 282 283 285 285 286
283 283 284 285 285 283 283 283 280 277 276 275 275 274 274 274 274 275 275 275 277 276 275 274 274 278 281 283 282 282 283 282 278 280 282 285 285 285
283 278 278 277 278 278 278 278 277 278 278 280 275 275 274 274 274 274 273 273 274 276 277 278 278 279 280 280 278 280 281 282 283 283 278 283 284 284
277 276 278 279 279 277 278 277 278 279 280 279 278 279 278 277 277 277 276 276 276 277 278 279 279 277 276 278 280 278 279 279 281 281 278 281 282 284
285 284 284 283 283 283 283 281 280 278 275 275 277 278 280 280 280 280 280 279 279 278 279 280 279 278 275 274 278 283 278 279 280 280 281 281 280 282
285 284 283 283 282 281 277 272 272 273 272 273 274 275 277 277 279 279 279 279 279 279 279 279 279 278 276 276 276 279 284 280 279 278 279 281 282 285
283 282 282 281 281 281 278 275 275 276 276 274 275 273 274 274 273 274 275 276 277 278 277 277 280 281 281 280 274 275 277 283 282 280 279 278 277 278
278 277 276 275 275 275 274 273 273 272 272 273 272 273 275 275 274 275 274 275 275 275 276 277 278 279 279 275 275 275 275 278 281 282 283 282 278 275
274 274 274 273 271 271 270 269 268 269 268 269 269 270 269 268 269 269 269 269 269 270 270 270 272 273 274 275 276 276 275 275 276 276 278 282 283 283
Wind_Speed
7 7 5 3 3 1 5 5 5 4 3 2 2 2 2 2 2 3 4 5 7 9 11 10 9 10 7 6 6 7 9 10 10 11 12 13 15 16
6 8 5 3 4 3 4 3 1 3 4 1 1 2 2 2 3 4 3 5 8 7 8 7 6 8 6 3 4 6 7 7 8 10 11 13 14 15
6 9 7 6 4 3 3 3 3 4 5 2 2 1 2 3 2 2 1 4 3 6 7 7 6 5 4 3 3 5 6 7 7 9 10 11 13 14
7 8 8 5 5 4 3 4 4 4 4 4 2 1 1 3 3 2 1 2 3 5 6 6 7 6 4 2 1 2 2 4 5 6 8 9 10 11
7 8 8 8 5 4 4 5 4 3 3 5 4 1 1 1 1 2 1 1 0 2 5 6 6 8 6 4 3 3 4 4 3 4 6 7 9 10
5 6 6 6 7 6 5 6 5 5 5 6 3 3 2 2 2 2 1 0 1 1 3 4 7 7 8 9 7 6 6 7 6 4 5 6 7 9
7 7 6 6 10 7 5 5 5 4 5 4 3 2 2 2 4 3 3 1 2 2 3 4 3 4 5 8 7 9 10 9 7 6 5 6 6 8
9 8 8 10 12 14 14 14 7 5 3 3 3 2 2 2 2 2 3 3 3 3 2 6 3 6 5 5 10 12 13 11 9 8 6 5 6 7
9 8 8 7 8 10 14 15 13 13 9 2 3 2 3 5 5 4 3 3 2 1 4 5 4 9 5 8 16 16 15 13 13 10 9 7 7 8
8 8 9 8 6 7 8 7 6 6 6 4 4 3 0 4 5 5 5 3 1 1 1 4 2 5 4 7 19 19 17 15 14 14 13 12 11 10
8 8 8 8 9 9 7 7 6 5 6 8 8 6 4 6 6 5 2 2 2 2 4 3 3 3 2 4 6 17 17 18 16 14 15 15 14 14
7 8 13 9 12 11 7 5 5 2 3 4 4 5 6 4 5 2 3 3 2 2 1 3 1 1 4 3 2 3 5 15 16 16 15 16 16 7
5 5 4 12 12 13 10 5 4 3 3 3 3 3 4 4 3 3 4 1 2 2 3 3 1 2 3 4 3 2 2 2 3 7 16 18 19 16
6 3 5 14 15 14 9 12 10 5 4 4 4 3 3 3 3 3 3 2 1 1 2 2 2 2 2 3 4 3 2 2 3 5 5 10 19 19
4 10 13 13 12 10 12 12 7 4 3 4 3 2 1 2 3 3 3 3 4 3 3 3 3 2 4 4 5 3 4 3 4 4 3 7 7 6
9 7 9 9 10 7 5 5 3 3 3 3 1 2 1 1 2 1 2 3 2 3 2 3 3 2 5 6 6 9 5 5 1 3 5 7 7 7
7 3 3 3 3 3 3 4 3 3 3 2 2 2 2 2 2 1 1 2 2 3 3 2 3 4 5 6 7 8 8 8 7 6 3 9 9 7
4 4 4 4 4 3 3 2 2 3 3 2 2 2 1 1 1 1 1 1 2 2 3 3 3 2 1 6 14 7 5 6 6 5 3 8 10 8
6 5 5 4 4 5 5 5 5 4 3 2 2 2 2 1 2 2 1 1 2 2 3 4 4 3 6 6 3 16 5 4 6 8 7 7 9 10
5 5 5 5 5 6 4 3 3 3 3 3 3 3 3 3 5 6 6 6 5 5 4 3 3 4 5 5 6 8 12 8 9 10 10 8 9 17
6 7 6 6 5 6 5 4 5 6 6 5 4 3 3 3 3 3 4 6 6 5 6 5 7 8 6 5 3 5 5 10 11 10 10 10 10 9
7 8 7 6 7 6 6 5 5 7 7 6 5 6 7 7 7 7 7 7 7 6 7 6 7 6 5 3 8 9 6 6 8 14 17 17 9 8
7 7 7 7 7 7 7 6 6 6 7 7 6 7 7 7 6 5 6 6 6 7 8 7 7 7 7 8 10 9 11 10 7 8 9 15 18 21
Wind_Direction
154 139 137 136 143 83 123 145 145 151 174 143 148 191 189 178 73 99 72 36 87 96 92 94 95 101 84 76 70 55 48 45 34 29 28 25 28 27
159 162 140 140 147 128 145 199 125 123 116 143 85 158 186 122 61 106 119 75 95 100 108 111 106 106 107 81 60 56 56 37 31 25 26 25 27 25
155 162 150 142 151 160 142 115 117 95 110 86 106 157 131 143 161 148 137 143 118 134 135 135 119 102 112 110 57 39 33 22 24 18 20 26 27 20
149 153 153 137 139 143 137 118 103 90 120 139 120 145 170 185 173 147 84 33 125 174 162 156 133 155 151 167 124 24 1 356 16 12 12 19 21 19
150 148 148 154 145 128 120 117 96 102 103 126 118 144 106 148 78 52 121 306 3 251 206 168 178 176 185 210 231 244 268 296 334 353 355 4 14 15
114 127 135 142 136 133 122 121 124 102 98 100 101 118 150 135 108 127 318 326 229 312 278 221 207 222 206 209 224 241 249 262 273 294 317 338 359 1
59 58 62 90 98 102 127 123 115 94 103 111 108 152 150 148 192 173 178 172 302 207 255 248 240 228 237 237 228 224 246 255 258 267 286 319 341 349
86 68 60 69 68 76 82 78 85 113 136 134 134 131 180 192 161 154 127 142 243 200 230 249 220 247 242 227 233 242 243 248 255 261 268 288 313 321
68 74 68 55 71 82 74 72 61 54 55 128 118 161 170 187 150 163 180 164 217 171 184 269 201 241 244 249 250 246 239 239 252 253 254 256 282 295
66 76 82 69 64 95 91 84 76 60 41 42 69 98 79 167 162 173 168 135 74 337 233 266 261 238 228 242 241 242 233 237 241 254 257 263 269 276
67 64 74 68 45 69 84 83 62 54 36 47 57 56 4 157 151 121 134 125 221 232 205 251 272 293 228 245 220 237 238 236 236 227 248 258 262 267
62 65 72 74 61 66 84 98 85 37 31 18 24 37 34 35 173 17 147 173 157 274 187 212 290 293 304 265 266 249 238 243 239 240 230 249 259 259
90 75 59 71 67 67 70 71 79 138 36 70 56 46 41 38 37 44 20 14 195 242 206 165 232 258 261 300 298 258 216 240 245 252 249 253 258 252
84 68 73 73 67 68 61 56 52 51 52 48 51 34 40 38 17 5 340 323 304 265 326 194 258 205 257 292 273 324 287 236 227 247 235 255 263 266
91 88 75 69 78 67 62 60 51 43 45 50 43 27 42 251 299 321 312 269 278 257 214 209 221 259 226 254 283 305 316 288 226 238 262 265 262 253
65 65 70 74 73 76 63 61 58 60 93 106 98 240 250 1 356 14 345 330 332 316 313 225 217 232 272 262 264 276 265 273 251 221 233 253 255 245
105 72 59 57 55 43 33 34 25 27 31 17 29 17 19 21 339 356 357 334 8 318 312 284 236 214 233 260 277 265 272 273 267 272 219 266 266 252
61 73 66 71 75 66 55 44 53 40 25 15 359 354 4 10 322 281 209 235 283 299 302 310 316 299 286 263 223 269 275 274 286 282 251 266 279 272
93 82 77 67 65 57 50 45 30 358 349 345 340 347 328 311 342 344 304 258 304 292 305 308 311 300 304 301 287 217 285 297 301 294 279 267 274 282
75 84 80 72 68 68 55 39 27 14 19 4 1 352 359 354 9 5 354 349 343 332 318 314 314 307 296 302 301 296 240 282 295 296 296 288 275 275
83 75 64 58 58 67 54 44 45 37 29 11 8 354 352 7 4 360 354 354 346 350 346 341 323 289 280 284 296 295 283 266 260 285 301 294 296 298
68 69 61 50 54 49 42 35 38 38 29 29 14 13 11 16 14 9 6 1 3 354 353 338 331 325 316 291 304 301 291 290 284 284 275 273 295 295
72 74 68 57 43 42 42 37 31 40 28 22 22 20 14 14 6 16 15 12 8 11 357 344 345 348 339 332 321 314 306 303 300 305 299 292 284 275